Zurück zum Katalog

NOAA 16 DEB

AktivSSO
NORAD 41492·DEBRIS·🇺🇸 United States

Gestartet Sep 21, 2000 von Vandenberg Space Force Base

Loading…

Nächste Überflüge (nächste 24 Stunden)

TLE

VeraltetSource: Space-Track

Epoche: Aug 31, 2026, 13:42 UTC

1 41492U 00055LQ  26243.57145665  .00004460  00000-0  25067-2 0  9992
2 41492  98.8810 177.1860 0103322 359.5332   0.5725 14.08309859532867

Verfolge NOAA 16 DEB in Echtzeit mit AllMySat

Download on the App Store